EWG15E EDDL-LGIR

Flight info

Callsign EWG15E
Flight time 2h 53m
Altitude 37000
Route DODEN7Z DODEN Y853 BOMBI DCT DETEV DCT DINKU M867 XERUM DCT BAVAX DCT RADIZ DCT NEMEK DCT VRANA DCT PETAK DCT PINDO UL607 GIVIS T514 XAVIS
Aircraft A320/M-SDE3FGHIRWY/LB1

Departure

Time 2026-05-01 10:43
Airport Düsseldorf Airport (EDDL)

Arrival

Time 2026-05-01 13:36
Airport Heraklion International Nikos Kazantzakis Airport (LGIR)
Time Latitude Longitude Altitude Speed Heading
2026-05-01 09:21 51.27905 6.76252 131 ft 0 kts 45°
2026-05-01 09:50 51.27905 6.76251 131 ft 0 kts 46°
2026-05-01 09:53 51.27904 6.76251 131 ft 0 kts 47°
2026-05-01 10:04 51.27904 6.76250 131 ft 0 kts 47°
2026-05-01 10:22 51.27903 6.76250 130 ft 0 kts 47°
2026-05-01 10:26 51.27897 6.76238 125 ft 4 kts 49°
2026-05-01 10:26 51.27880 6.76205 129 ft 4 kts 58°
2026-05-01 10:26 51.27860 6.76134 127 ft 2 kts 71°
2026-05-01 10:27 51.27847 6.76052 119 ft 4 kts 82°
2026-05-01 10:27 51.27844 6.75969 126 ft 4 kts 91°
2026-05-01 10:28 51.27844 6.75938 126 ft 0 kts 91°
2026-05-01 10:30 51.27844 6.75937 126 ft 0 kts 91°
2026-05-01 10:35 51.27844 6.75991 126 ft 4 kts 84°
2026-05-01 10:35 51.27871 6.76043 129 ft 10 kts 22°
2026-05-01 10:35 51.27933 6.76048 130 ft 8 kts
2026-05-01 10:35 51.27987 6.76046 129 ft 7 kts 360°
2026-05-01 10:36 51.28073 6.76047 128 ft 5 kts 355°
2026-05-01 10:36 51.28112 6.76026 127 ft 7 kts 352°
2026-05-01 10:36 51.28148 6.76059 126 ft 6 kts 50°
2026-05-01 10:37 51.28195 6.76160 128 ft 13 kts 53°
2026-05-01 10:37 51.28304 6.76388 124 ft 14 kts 53°
2026-05-01 10:37 51.28376 6.76537 123 ft 18 kts 52°
2026-05-01 10:38 51.28455 6.76704 126 ft 19 kts 53°
2026-05-01 10:38 51.28535 6.76872 126 ft 19 kts 53°
2026-05-01 10:38 51.28614 6.77036 127 ft 19 kts 52°
2026-05-01 10:38 51.28694 6.77205 126 ft 19 kts 52°
2026-05-01 10:39 51.28777 6.77379 126 ft 20 kts 53°
2026-05-01 10:39 51.28865 6.77566 127 ft 22 kts 52°
2026-05-01 10:39 51.28959 6.77762 127 ft 23 kts 52°
2026-05-01 10:39 51.29057 6.77967 128 ft 24 kts 53°
2026-05-01 10:40 51.29154 6.78172 135 ft 22 kts 52°
2026-05-01 10:40 51.29243 6.78360 143 ft 20 kts 53°
2026-05-01 10:40 51.29319 6.78519 149 ft 14 kts 51°
2026-05-01 10:40 51.29392 6.78570 152 ft 10 kts
2026-05-01 10:41 51.29457 6.78561 152 ft 8 kts
2026-05-01 10:41 51.29503 6.78541 153 ft 6 kts 322°
2026-05-01 10:41 51.29494 6.78418 150 ft 0 kts 233°
2026-05-01 10:42 51.29348 6.78113 143 ft 74 kts 232°
2026-05-01 10:42 51.28902 6.77170 130 ft 136 kts 232°
2026-05-01 10:42 51.28229 6.75796 321 ft 164 kts 229°
2026-05-01 10:43 51.27540 6.74326 1080 ft 164 kts 228°
2026-05-01 10:43 51.26852 6.72812 1618 ft 178 kts 227°
2026-05-01 10:43 51.26071 6.71130 1941 ft 197 kts 227°
2026-05-01 10:43 51.25186 6.69281 2262 ft 222 kts 227°
2026-05-01 10:44 51.24187 6.67214 2669 ft 247 kts 226°
2026-05-01 10:44 51.23093 6.65051 3435 ft 250 kts 217°
2026-05-01 10:44 51.21617 6.63704 4244 ft 247 kts 190°
2026-05-01 10:44 51.19903 6.63668 5059 ft 250 kts 172°
2026-05-01 10:45 51.18174 6.63988 5957 ft 251 kts 172°
2026-05-01 10:45 51.16415 6.64288 6784 ft 257 kts 171°
2026-05-01 10:45 51.14699 6.65134 7466 ft 263 kts 146°
2026-05-01 10:45 51.13487 6.67305 8240 ft 267 kts 117°
2026-05-01 10:46 51.13067 6.70193 9062 ft 274 kts 92°
2026-05-01 10:46 51.13161 6.73234 9913 ft 277 kts 89°
2026-05-01 10:46 51.13283 6.76309 10660 ft 282 kts 89°
2026-05-01 10:46 51.13412 6.79562 10907 ft 306 kts 89°
2026-05-01 10:47 51.13548 6.83065 11145 ft 326 kts 89°
2026-05-01 10:47 51.13689 6.86713 11699 ft 334 kts 89°
2026-05-01 10:47 51.13832 6.90440 12390 ft 338 kts 89°
2026-05-01 10:47 51.13974 6.94207 13058 ft 342 kts 89°
2026-05-01 10:48 51.14116 6.98012 13761 ft 345 kts 89°
2026-05-01 10:48 51.14259 7.01861 14404 ft 349 kts 89°
2026-05-01 10:48 51.14400 7.05750 15003 ft 353 kts 89°
2026-05-01 10:48 51.14539 7.09667 15621 ft 356 kts 89°
2026-05-01 10:49 51.14674 7.13572 16209 ft 359 kts 88°
2026-05-01 10:49 51.14810 7.17550 16848 ft 361 kts 88°
2026-05-01 10:49 51.14947 7.21547 17471 ft 363 kts 88°
2026-05-01 10:49 51.15084 7.25628 18043 ft 366 kts 88°
2026-05-01 10:50 51.15219 7.29704 18606 ft 370 kts 88°
2026-05-01 10:50 51.15355 7.33799 19152 ft 371 kts 88°
2026-05-01 10:50 51.15423 7.37940 19591 ft 375 kts 94°
2026-05-01 10:50 51.14994 7.42045 20058 ft 378 kts 106°
2026-05-01 10:51 51.14023 7.45876 20570 ft 380 kts 117°
2026-05-01 10:51 51.12532 7.49376 20963 ft 386 kts 130°
2026-05-01 10:51 51.10620 7.52404 21406 ft 390 kts 135°
2026-05-01 10:51 51.08642 7.55398 21800 ft 395 kts 135°
2026-05-01 10:52 51.06647 7.58436 22212 ft 399 kts 135°
2026-05-01 10:52 51.04639 7.61511 22699 ft 401 kts 134°
2026-05-01 10:52 51.02622 7.64593 23150 ft 403 kts 135°
2026-05-01 10:52 51.00586 7.67692 23526 ft 408 kts 134°
2026-05-01 10:53 50.98529 7.70817 23944 ft 411 kts 134°
2026-05-01 10:53 50.96368 7.73825 24276 ft 416 kts 141°
2026-05-01 10:53 50.93931 7.76353 24624 ft 421 kts 146°
2026-05-01 10:53 50.91432 7.78802 24966 ft 423 kts 146°
2026-05-01 10:54 50.88921 7.81267 25298 ft 426 kts 146°
2026-05-01 10:54 50.86396 7.83754 25612 ft 429 kts 145°
2026-05-01 10:54 50.83853 7.86262 25932 ft 432 kts 146°
2026-05-01 10:54 50.81291 7.88783 26250 ft 435 kts 146°
2026-05-01 10:55 50.78716 7.91310 26566 ft 437 kts 146°
2026-05-01 10:55 50.76119 7.93847 26926 ft 439 kts 147°
2026-05-01 10:55 50.73517 7.96386 27275 ft 440 kts 147°
2026-05-01 10:55 50.70909 7.98929 27652 ft 442 kts 147°
2026-05-01 10:56 50.68283 8.01490 27988 ft 444 kts 146°
2026-05-01 10:56 50.65647 8.04058 28300 ft 447 kts 146°
2026-05-01 10:56 50.62992 8.06641 28559 ft 450 kts 147°
2026-05-01 10:56 50.60345 8.09294 28878 ft 451 kts 142°
2026-05-01 10:57 50.57897 8.12375 29137 ft 452 kts 138°
2026-05-01 10:57 50.55475 8.15562 29380 ft 455 kts 138°
2026-05-01 10:57 50.53041 8.18763 29671 ft 457 kts 138°
2026-05-01 10:57 50.50598 8.21972 29943 ft 459 kts 138°
2026-05-01 10:58 50.48142 8.25190 30213 ft 461 kts 139°
2026-05-01 10:58 50.45670 8.28412 30470 ft 463 kts 138°
2026-05-01 10:58 50.43182 8.31647 30660 ft 466 kts 138°
2026-05-01 10:58 50.40683 8.34895 30921 ft 467 kts 139°
2026-05-01 10:59 50.38189 8.38135 31279 ft 465 kts 139°
2026-05-01 10:59 50.35707 8.41361 31609 ft 464 kts 139°
2026-05-01 10:59 50.33225 8.44581 31912 ft 464 kts 139°
2026-05-01 10:59 50.30736 8.47803 32200 ft 464 kts 139°
2026-05-01 11:00 50.28250 8.51022 32514 ft 463 kts 139°
2026-05-01 11:00 50.25761 8.54237 32846 ft 463 kts 139°
2026-05-01 11:00 50.23289 8.57427 33161 ft 462 kts 139°
2026-05-01 11:00 50.20805 8.60631 33454 ft 462 kts 139°
2026-05-01 11:01 50.18295 8.63864 33763 ft 461 kts 139°
2026-05-01 11:01 50.15847 8.67009 34100 ft 460 kts 139°
2026-05-01 11:01 50.13344 8.70215 34401 ft 460 kts 139°
2026-05-01 11:01 50.10865 8.73384 34654 ft 460 kts 139°
2026-05-01 11:02 50.08441 8.76534 34938 ft 458 kts 135°
2026-05-01 11:02 50.06232 8.80165 35202 ft 455 kts 126°
2026-05-01 11:02 50.04464 8.84152 35461 ft 452 kts 117°
2026-05-01 11:02 50.03025 8.88561 35700 ft 451 kts 114°
2026-05-01 11:03 50.01662 8.92970 35923 ft 450 kts 114°
2026-05-01 11:03 50.00301 8.97344 36173 ft 450 kts 114°
2026-05-01 11:03 49.98934 9.01713 36384 ft 449 kts 114°
2026-05-01 11:03 49.97566 9.06069 36595 ft 449 kts 114°
2026-05-01 11:04 49.96196 9.10429 36816 ft 448 kts 114°
2026-05-01 11:04 49.94828 9.14780 37016 ft 448 kts 113°
2026-05-01 11:04 49.93460 9.19131 37189 ft 449 kts 113°
2026-05-01 11:04 49.92091 9.23488 37345 ft 449 kts 114°
2026-05-01 11:05 49.90722 9.27840 37372 ft 449 kts 114°
2026-05-01 11:05 49.87990 9.36477 37372 ft 449 kts 114°
2026-05-01 11:06 49.85215 9.45224 37368 ft 449 kts 114°
2026-05-01 11:06 49.82215 9.53635 37377 ft 451 kts 124°
2026-05-01 11:07 49.77885 9.60694 37368 ft 453 kts 135°
2026-05-01 11:07 49.75585 9.64024 37370 ft 453 kts 135°
2026-05-01 11:07 49.70983 9.70707 37372 ft 454 kts 135°
2026-05-01 11:08 49.66384 9.77377 37383 ft 454 kts 135°
2026-05-01 11:09 49.59461 9.87334 37381 ft 454 kts 135°
2026-05-01 11:09 49.54833 9.93967 37396 ft 454 kts 135°
2026-05-01 11:10 49.47898 10.03893 37397 ft 454 kts 135°
2026-05-01 11:10 49.44025 10.09419 37397 ft 453 kts 135°
2026-05-01 11:11 49.39394 10.16004 37396 ft 453 kts 135°
2026-05-01 11:11 49.34762 10.22567 37401 ft 453 kts 135°
2026-05-01 11:12 49.30121 10.29121 37410 ft 453 kts 135°
2026-05-01 11:12 49.25481 10.35661 37427 ft 453 kts 134°
2026-05-01 11:13 49.20386 10.41271 37426 ft 457 kts 147°
2026-05-01 11:13 49.14923 10.46232 37423 ft 457 kts 147°
2026-05-01 11:14 49.09455 10.51200 37430 ft 457 kts 147°
2026-05-01 11:14 49.03992 10.56164 37422 ft 457 kts 147°
2026-05-01 11:15 48.98522 10.61116 37437 ft 457 kts 146°
2026-05-01 11:15 48.93052 10.66053 37422 ft 457 kts 146°
2026-05-01 11:16 48.87609 10.70949 37414 ft 457 kts 147°
2026-05-01 11:16 48.82186 10.75983 37406 ft 455 kts 140°
2026-05-01 11:17 48.77666 10.82572 37401 ft 449 kts 128°
2026-05-01 11:17 48.73488 10.89631 37391 ft 450 kts 129°
2026-05-01 11:18 48.69290 10.96652 37404 ft 450 kts 128°
2026-05-01 11:18 48.65073 11.03662 37402 ft 450 kts 128°
2026-05-01 11:19 48.60866 11.10667 37397 ft 450 kts 128°
2026-05-01 11:19 48.56647 11.17672 37386 ft 450 kts 129°
2026-05-01 11:20 48.52425 11.24656 37388 ft 450 kts 129°
2026-05-01 11:20 48.48205 11.31627 37398 ft 450 kts 129°
2026-05-01 11:21 48.43983 11.38586 37385 ft 449 kts 129°
2026-05-01 11:21 48.39768 11.45517 37392 ft 449 kts 129°
2026-05-01 11:22 48.35545 11.52443 37391 ft 449 kts 129°
2026-05-01 11:22 48.31307 11.59351 37390 ft 449 kts 129°
2026-05-01 11:23 48.27072 11.66246 37413 ft 449 kts 129°
2026-05-01 11:23 48.22679 11.72863 37407 ft 451 kts 133°
2026-05-01 11:24 48.18004 11.79151 37402 ft 452 kts 135°
2026-05-01 11:25 48.10972 11.88526 37390 ft 451 kts 134°
2026-05-01 11:25 48.04039 11.98034 37392 ft 451 kts 134°
2026-05-01 11:26 47.97096 12.07516 37401 ft 451 kts 133°
2026-05-01 11:27 47.92455 12.13800 37397 ft 451 kts 134°
2026-05-01 11:27 47.87807 12.20073 37385 ft 451 kts 134°
2026-05-01 11:28 47.83159 12.26340 37386 ft 451 kts 134°
2026-05-01 11:28 47.78504 12.32605 37379 ft 451 kts 134°
2026-05-01 11:29 47.71520 12.41977 37372 ft 451 kts 134°
2026-05-01 11:30 47.64530 12.51330 37371 ft 451 kts 134°
2026-05-01 11:30 47.59892 12.57589 37365 ft 450 kts 132°
2026-05-01 11:31 47.55378 12.64016 37393 ft 450 kts 131°
2026-05-01 11:31 47.50920 12.70434 37379 ft 450 kts 131°
2026-05-01 11:32 47.46371 12.76888 37362 ft 451 kts 131°
2026-05-01 11:32 47.41851 12.83230 37359 ft 450 kts 131°
2026-05-01 11:33 47.37302 12.89586 37356 ft 450 kts 131°
2026-05-01 11:33 47.32754 12.95942 37374 ft 450 kts 131°
2026-05-01 11:34 47.28211 13.02286 37365 ft 450 kts 131°
2026-05-01 11:34 47.23666 13.08616 37366 ft 450 kts 131°
2026-05-01 11:35 47.19123 13.14926 37358 ft 449 kts 131°
2026-05-01 11:35 47.14575 13.21216 37355 ft 449 kts 131°
2026-05-01 11:36 47.10022 13.27516 37387 ft 449 kts 131°
2026-05-01 11:36 47.05462 13.33805 37371 ft 449 kts 131°
2026-05-01 11:37 47.00926 13.40036 37368 ft 450 kts 131°
2026-05-01 11:37 46.96352 13.46302 37350 ft 449 kts 131°
2026-05-01 11:38 46.91784 13.52563 37363 ft 450 kts 131°
2026-05-01 11:38 46.87217 13.58800 37383 ft 450 kts 131°
2026-05-01 11:39 46.82623 13.65051 37379 ft 450 kts 131°
2026-05-01 11:39 46.78038 13.71267 37370 ft 450 kts 131°
2026-05-01 11:40 46.73446 13.77496 37385 ft 451 kts 131°
2026-05-01 11:40 46.68848 13.83717 37378 ft 451 kts 131°
2026-05-01 11:41 46.64246 13.89914 37416 ft 450 kts 131°
2026-05-01 11:41 46.59644 13.96101 37394 ft 451 kts 131°
2026-05-01 11:42 46.55059 14.02258 37394 ft 452 kts 131°
2026-05-01 11:42 46.50433 14.08446 37389 ft 452 kts 131°
2026-05-01 11:43 46.45793 14.14634 37387 ft 453 kts 131°
2026-05-01 11:43 46.41157 14.20814 37411 ft 453 kts 130°
2026-05-01 11:44 46.34193 14.30074 37363 ft 453 kts 130°
2026-05-01 11:44 46.29539 14.36240 37361 ft 454 kts 131°
2026-05-01 11:45 46.24877 14.42393 37369 ft 454 kts 131°
2026-05-01 11:45 46.20205 14.48536 37366 ft 454 kts 131°
2026-05-01 11:46 46.15532 14.54673 37370 ft 454 kts 130°
2026-05-01 11:46 46.10862 14.60803 37368 ft 454 kts 130°
2026-05-01 11:47 46.06185 14.66929 37377 ft 454 kts 130°
2026-05-01 11:47 46.01501 14.73052 37383 ft 454 kts 130°
2026-05-01 11:48 45.96817 14.79153 37409 ft 454 kts 130°
2026-05-01 11:48 45.92122 14.85235 37404 ft 455 kts 131°
2026-05-01 11:49 45.87420 14.91319 37397 ft 455 kts 130°
2026-05-01 11:49 45.82717 14.97401 37392 ft 455 kts 131°
2026-05-01 11:50 45.78014 15.03473 37390 ft 455 kts 131°
2026-05-01 11:50 45.73313 15.09530 37427 ft 455 kts 131°
2026-05-01 11:51 45.68594 15.15584 37411 ft 455 kts 131°
2026-05-01 11:51 45.63870 15.21623 37410 ft 455 kts 131°
2026-05-01 11:52 45.59950 15.26633 37400 ft 455 kts 131°
2026-05-01 11:52 45.55227 15.32660 37397 ft 455 kts 131°
2026-05-01 11:53 45.50520 15.38696 37403 ft 455 kts 131°
2026-05-01 11:53 45.45815 15.44733 37393 ft 455 kts 131°
2026-05-01 11:54 45.41103 15.50742 37395 ft 455 kts 131°
2026-05-01 11:54 45.36389 15.56739 37390 ft 454 kts 131°
2026-05-01 11:55 45.31676 15.62733 37388 ft 455 kts 131°
2026-05-01 11:55 45.26957 15.68719 37402 ft 454 kts 131°
2026-05-01 11:56 45.22236 15.74695 37385 ft 455 kts 131°
2026-05-01 11:56 45.17505 15.80655 37371 ft 455 kts 131°
2026-05-01 11:57 45.12756 15.86622 37367 ft 456 kts 132°
2026-05-01 11:57 45.08040 15.92542 37394 ft 456 kts 132°
2026-05-01 11:58 45.03292 15.98495 37393 ft 456 kts 132°
2026-05-01 11:59 44.96145 16.07424 37360 ft 458 kts 132°
2026-05-01 11:59 44.91365 16.13376 37361 ft 458 kts 133°
2026-05-01 12:00 44.84177 16.22295 37381 ft 459 kts 133°
2026-05-01 12:01 44.76968 16.31212 37369 ft 460 kts 133°
2026-05-01 12:01 44.72153 16.37158 37361 ft 461 kts 133°
2026-05-01 12:02 44.67320 16.43104 37359 ft 461 kts 133°
2026-05-01 12:02 44.62486 16.49039 37372 ft 462 kts 134°
2026-05-01 12:03 44.57642 16.54986 37357 ft 462 kts 134°
2026-05-01 12:03 44.52795 16.60912 37347 ft 463 kts 134°
2026-05-01 12:04 44.47930 16.66846 37346 ft 464 kts 134°
2026-05-01 12:04 44.43057 16.72771 37357 ft 464 kts 134°
2026-05-01 12:05 44.38177 16.78687 37350 ft 464 kts 134°
2026-05-01 12:05 44.30855 16.87560 37349 ft 465 kts 135°
2026-05-01 12:06 44.25969 16.93473 37340 ft 465 kts 135°
2026-05-01 12:06 44.21067 16.99385 37351 ft 466 kts 135°
2026-05-01 12:07 44.16153 17.05276 37318 ft 466 kts 135°
2026-05-01 12:07 44.11263 17.11129 37316 ft 466 kts 135°
2026-05-01 12:08 44.06316 17.17058 37297 ft 467 kts 135°
2026-05-01 12:08 44.01418 17.22909 37292 ft 468 kts 135°
2026-05-01 12:09 43.96466 17.28802 37297 ft 468 kts 135°
2026-05-01 12:09 43.91514 17.34687 37292 ft 469 kts 136°
2026-05-01 12:10 43.84073 17.43495 37266 ft 469 kts 137°
2026-05-01 12:11 43.76603 17.52311 37247 ft 472 kts 136°
2026-05-01 12:11 43.71228 17.57624 37257 ft 476 kts 144°
2026-05-01 12:12 43.65725 17.62744 37240 ft 477 kts 144°
2026-05-01 12:12 43.60222 17.67868 37243 ft 477 kts 144°
2026-05-01 12:13 43.54720 17.72974 37255 ft 476 kts 144°
2026-05-01 12:13 43.49223 17.78057 37261 ft 476 kts 144°
2026-05-01 12:14 43.43708 17.83153 37214 ft 478 kts 143°
2026-05-01 12:14 43.38184 17.88241 37222 ft 478 kts 144°
2026-05-01 12:15 43.32651 17.93324 37213 ft 479 kts 144°
2026-05-01 12:15 43.27100 17.98403 37202 ft 480 kts 143°
2026-05-01 12:16 43.21530 18.03497 37202 ft 482 kts 144°
2026-05-01 12:16 43.15956 18.08586 37227 ft 480 kts 144°
2026-05-01 12:17 43.10393 18.13639 37219 ft 479 kts 145°
2026-05-01 12:17 43.04835 18.18685 37217 ft 478 kts 145°
2026-05-01 12:18 42.99334 18.23669 37219 ft 477 kts 145°
2026-05-01 12:18 42.93776 18.28699 37200 ft 476 kts 145°
2026-05-01 12:19 42.88291 18.33658 37173 ft 477 kts 145°
2026-05-01 12:19 42.82750 18.38660 37175 ft 477 kts 146°
2026-05-01 12:20 42.77203 18.43644 37174 ft 478 kts 146°
2026-05-01 12:20 42.71625 18.48640 37162 ft 479 kts 146°
2026-05-01 12:21 42.66057 18.53611 37155 ft 479 kts 147°
2026-05-01 12:21 42.60484 18.58582 37187 ft 479 kts 147°
2026-05-01 12:22 42.54920 18.63543 37187 ft 479 kts 147°
2026-05-01 12:22 42.49340 18.68497 37204 ft 479 kts 147°
2026-05-01 12:23 42.43763 18.73440 37207 ft 479 kts 147°
2026-05-01 12:23 42.38193 18.78376 37201 ft 478 kts 147°
2026-05-01 12:24 42.32629 18.83296 37196 ft 478 kts 148°
2026-05-01 12:24 42.27048 18.88213 37189 ft 478 kts 148°
2026-05-01 12:25 42.18687 18.95556 37169 ft 478 kts 148°
2026-05-01 12:26 42.13105 19.00440 37164 ft 478 kts 148°
2026-05-01 12:26 42.04727 19.07770 37169 ft 479 kts 148°
2026-05-01 12:27 41.96331 19.15092 37163 ft 480 kts 149°
2026-05-01 12:28 41.87950 19.22373 37165 ft 480 kts 149°
2026-05-01 12:29 41.79511 19.29679 37161 ft 481 kts 148°
2026-05-01 12:29 41.71986 19.38623 37138 ft 484 kts 137°
2026-05-01 12:30 41.64738 19.48047 37136 ft 485 kts 137°
2026-05-01 12:31 41.59886 19.54334 37135 ft 486 kts 137°
2026-05-01 12:31 41.55851 19.59558 37131 ft 486 kts 137°
2026-05-01 12:32 41.50987 19.65835 37119 ft 486 kts 138°
2026-05-01 12:32 41.43674 19.75252 37110 ft 488 kts 138°
2026-05-01 12:33 41.38779 19.81540 37119 ft 489 kts 138°
2026-05-01 12:33 41.33883 19.87822 37121 ft 489 kts 138°
2026-05-01 12:34 41.28980 19.94098 37126 ft 489 kts 138°
2026-05-01 12:34 41.24067 20.00359 37105 ft 489 kts 139°
2026-05-01 12:35 41.19145 20.06616 37102 ft 489 kts 139°
2026-05-01 12:35 41.14224 20.12869 37110 ft 490 kts 139°
2026-05-01 12:36 41.09287 20.19124 37118 ft 491 kts 139°
2026-05-01 12:36 41.04354 20.25368 37127 ft 491 kts 139°
2026-05-01 12:37 40.99405 20.31617 37128 ft 491 kts 139°
2026-05-01 12:37 40.94460 20.37841 37147 ft 491 kts 139°
2026-05-01 12:38 40.89517 20.44052 37142 ft 490 kts 139°
2026-05-01 12:38 40.84601 20.50220 37152 ft 490 kts 140°
2026-05-01 12:39 40.79614 20.56447 37144 ft 490 kts 140°
2026-05-01 12:39 40.74663 20.62624 37149 ft 490 kts 139°
2026-05-01 12:40 40.69740 20.68760 37122 ft 490 kts 140°
2026-05-01 12:40 40.64776 20.74938 37138 ft 491 kts 140°
2026-05-01 12:41 40.59783 20.81087 37142 ft 491 kts 141°
2026-05-01 12:41 40.54759 20.87185 37145 ft 491 kts 141°
2026-05-01 12:42 40.49729 20.93264 37161 ft 491 kts 141°
2026-05-01 12:42 40.44696 20.99359 37138 ft 492 kts 141°
2026-05-01 12:43 40.39677 21.05446 37151 ft 492 kts 141°
2026-05-01 12:43 40.34637 21.11540 37162 ft 493 kts 141°
2026-05-01 12:44 40.29576 21.17644 37184 ft 494 kts 141°
2026-05-01 12:45 40.19451 21.29799 37193 ft 494 kts 141°
2026-05-01 12:45 40.14377 21.35872 37178 ft 495 kts 142°
2026-05-01 12:46 40.09297 21.41954 37189 ft 495 kts 142°
2026-05-01 12:46 40.04210 21.48023 37191 ft 495 kts 142°
2026-05-01 12:47 39.99111 21.54083 37198 ft 495 kts 142°
2026-05-01 12:47 39.94018 21.60131 37196 ft 495 kts 142°
2026-05-01 12:48 39.88920 21.66171 37180 ft 496 kts 142°
2026-05-01 12:48 39.83842 21.72179 37189 ft 496 kts 142°
2026-05-01 12:49 39.78727 21.78215 37194 ft 497 kts 142°
2026-05-01 12:49 39.73596 21.84265 37196 ft 498 kts 143°
2026-05-01 12:50 39.68459 21.90301 37200 ft 499 kts 143°
2026-05-01 12:50 39.63314 21.96338 37181 ft 499 kts 143°
2026-05-01 12:51 39.58156 22.02375 37186 ft 500 kts 143°
2026-05-01 12:52 39.50394 22.11429 37193 ft 501 kts 143°
2026-05-01 12:52 39.42618 22.20472 37185 ft 501 kts 144°
2026-05-01 12:53 39.34830 22.29505 37169 ft 502 kts 144°
2026-05-01 12:54 39.29621 22.35519 37176 ft 503 kts 144°
2026-05-01 12:54 39.21792 22.44555 37182 ft 503 kts 144°
2026-05-01 12:55 39.13945 22.53578 37201 ft 504 kts 144°
2026-05-01 12:56 39.08705 22.59598 37174 ft 505 kts 144°
2026-05-01 12:56 39.03441 22.65633 37212 ft 508 kts 145°
2026-05-01 12:57 38.98165 22.71672 37212 ft 508 kts 145°
2026-05-01 12:57 38.90230 22.80701 37200 ft 508 kts 145°
2026-05-01 12:58 38.84936 22.86718 37205 ft 508 kts 145°
2026-05-01 12:59 38.76998 22.95722 37179 ft 508 kts 146°
2026-05-01 12:59 38.69044 23.04721 37197 ft 508 kts 146°
2026-05-01 13:00 38.61070 23.13692 37185 ft 509 kts 146°
2026-05-01 13:01 38.53136 23.22618 37180 ft 508 kts 146°
2026-05-01 13:02 38.45162 23.31531 37158 ft 508 kts 147°
2026-05-01 13:07 37.86517 23.96378 37164 ft 508 kts 147°
2026-05-01 13:08 37.81169 24.02226 37169 ft 508 kts 147°
2026-05-01 13:08 37.75819 24.08062 37167 ft 508 kts 147°
2026-05-01 13:09 37.70457 24.13891 37145 ft 509 kts 148°
2026-05-01 13:09 37.65081 24.19713 37102 ft 509 kts 148°
2026-05-01 13:10 37.59706 24.25539 37112 ft 510 kts 147°
2026-05-01 13:10 37.54196 24.31088 37110 ft 499 kts 157°
2026-05-01 13:11 37.49324 24.34930 37112 ft 498 kts 158°
2026-05-01 13:11 37.42449 24.40316 37104 ft 498 kts 158°
2026-05-01 13:12 37.37565 24.44141 37078 ft 497 kts 157°
2026-05-01 13:12 37.31699 24.48735 37098 ft 496 kts 157°
2026-05-01 13:13 37.25837 24.53319 37098 ft 497 kts 157°
2026-05-01 13:13 37.19956 24.57901 37102 ft 497 kts 158°
2026-05-01 13:14 37.14085 24.62469 37073 ft 497 kts 158°
2026-05-01 13:14 37.08211 24.67031 37065 ft 497 kts 158°
2026-05-01 13:15 37.02335 24.71591 37069 ft 497 kts 158°
2026-05-01 13:15 36.96453 24.76142 37042 ft 498 kts 158°
2026-05-01 13:15 36.93506 24.78414 36776 ft 497 kts 158°
2026-05-01 13:16 36.90568 24.80680 36517 ft 497 kts 158°
2026-05-01 13:16 36.87620 24.82962 35925 ft 499 kts 158°
2026-05-01 13:16 36.84660 24.85250 35121 ft 501 kts 158°
2026-05-01 13:17 36.75635 24.92223 32291 ft 515 kts 157°
2026-05-01 13:17 36.72604 24.94570 31744 ft 509 kts 157°
2026-05-01 13:18 36.66667 24.99164 30473 ft 501 kts 157°
2026-05-01 13:18 36.63711 25.01438 29789 ft 498 kts 157°
2026-05-01 13:18 36.60778 25.03683 29140 ft 491 kts 157°
2026-05-01 13:18 36.57877 25.05898 28571 ft 485 kts 157°
2026-05-01 13:19 36.55016 25.08082 27963 ft 480 kts 157°
2026-05-01 13:19 36.52183 25.10244 27376 ft 476 kts 156°
2026-05-01 13:19 36.46592 25.14513 26209 ft 467 kts 156°
2026-05-01 13:20 36.43840 25.16614 25642 ft 462 kts 156°
2026-05-01 13:20 36.41116 25.18695 25096 ft 458 kts 156°
2026-05-01 13:20 36.38418 25.20752 24564 ft 453 kts 156°
2026-05-01 13:21 36.33104 25.24784 23495 ft 443 kts 156°
2026-05-01 13:21 36.30496 25.26762 22992 ft 436 kts 156°
2026-05-01 13:21 36.27929 25.28705 22486 ft 429 kts 157°
2026-05-01 13:21 36.25234 25.30214 21362 ft 424 kts 172°
2026-05-01 13:22 36.22376 25.30692 20789 ft 405 kts 187°
2026-05-01 13:22 36.19589 25.30675 20305 ft 398 kts 188°
2026-05-01 13:22 36.16835 25.30662 19779 ft 394 kts 187°
2026-05-01 13:22 36.14105 25.30649 19247 ft 390 kts 187°
2026-05-01 13:23 36.11399 25.30636 18723 ft 388 kts 186°
2026-05-01 13:23 36.08707 25.30717 18170 ft 386 kts 184°
2026-05-01 13:23 36.06026 25.30887 17595 ft 384 kts 182°
2026-05-01 13:23 36.03364 25.31104 17053 ft 382 kts 182°
2026-05-01 13:24 36.00728 25.31333 16531 ft 379 kts 182°
2026-05-01 13:24 35.98111 25.31553 16021 ft 376 kts 182°
2026-05-01 13:24 35.95508 25.31755 15526 ft 373 kts 182°
2026-05-01 13:25 35.90375 25.32109 14551 ft 367 kts 182°
2026-05-01 13:25 35.87836 25.32275 14092 ft 364 kts 182°
2026-05-01 13:25 35.85312 25.32440 13569 ft 362 kts 182°
2026-05-01 13:25 35.82805 25.32605 13028 ft 359 kts 182°
2026-05-01 13:26 35.80322 25.32770 12489 ft 356 kts 182°
2026-05-01 13:26 35.77856 25.32935 11953 ft 354 kts 182°
2026-05-01 13:26 35.75406 25.33103 11598 ft 346 kts 182°
2026-05-01 13:26 35.73081 25.33270 11448 ft 323 kts 182°
2026-05-01 13:27 35.70905 25.33431 10945 ft 312 kts 182°
2026-05-01 13:27 35.68741 25.33583 10381 ft 304 kts 182°
2026-05-01 13:27 35.64615 25.33856 9224 ft 291 kts 181°
2026-05-01 13:28 35.60628 25.34119 8159 ft 280 kts 181°
2026-05-01 13:28 35.58682 25.34247 8054 ft 279 kts 181°
2026-05-01 13:29 35.54820 25.34503 7291 ft 276 kts 180°
2026-05-01 13:29 35.51187 25.35906 5984 ft 277 kts 156°
2026-05-01 13:30 35.44392 25.40078 3260 ft 270 kts 154°
2026-05-01 13:31 35.41259 25.42005 2982 ft 227 kts 154°
2026-05-01 13:31 35.37187 25.42033 2993 ft 201 kts 223°
2026-05-01 13:32 35.35360 25.39522 2822 ft 196 kts 232°
2026-05-01 13:33 35.32972 25.35601 2472 ft 189 kts 258°
2026-05-01 13:33 35.32973 25.32459 2293 ft 182 kts 278°
2026-05-01 13:34 35.33165 25.29606 2007 ft 160 kts 279°
2026-05-01 13:34 35.33341 25.27037 1544 ft 143 kts 279°
2026-05-01 13:35 35.33502 25.24688 1091 ft 136 kts 279°
2026-05-01 13:35 35.33586 25.23519 906 ft 138 kts 281°
2026-05-01 13:35 35.33752 25.21186 476 ft 136 kts 278°
2026-05-01 13:36 35.33829 25.20025 293 ft 137 kts 281°
2026-05-01 13:36 35.33917 25.18853 106 ft 137 kts 279°
2026-05-01 13:36 35.34035 25.17211 92 ft 48 kts 275°
2026-05-01 13:37 35.34054 25.16903 93 ft 26 kts 274°
2026-05-01 13:37 35.34019 25.16845 91 ft 3 kts 121°
2026-05-01 13:37 35.34011 25.16865 91 ft 2 kts 118°
2026-05-01 13:37 35.34004 25.16881 91 ft 3 kts 118°
2026-05-01 13:38 35.33969 25.16948 92 ft 4 kts 121°
2026-05-01 13:38 35.33957 25.16976 90 ft 4 kts 116°
2026-05-01 13:38 35.33947 25.17012 91 ft 8 kts 102°
2026-05-01 13:39 35.33940 25.17101 92 ft 10 kts 94°
2026-05-01 13:39 35.33935 25.17182 90 ft 9 kts 95°
2026-05-01 13:39 35.33929 25.17252 91 ft 8 kts 95°
2026-05-01 13:39 35.33925 25.17313 93 ft 7 kts 95°
2026-05-01 13:40 35.33919 25.17358 91 ft 4 kts 111°
2026-05-01 13:40 35.33902 25.17377 92 ft 2 kts 152°
2026-05-01 13:40 35.33866 25.17374 91 ft 7 kts 187°
2026-05-01 13:40 35.33848 25.17370 94 ft 1 kts 200°
2026-05-01 13:41 35.33839 25.17354 91 ft 2 kts 251°
2026-05-01 13:41 35.33842 25.17335 92 ft 3 kts 285°
2026-05-01 13:41 35.33845 25.17317 93 ft 2 kts 287°
2026-05-01 13:41 35.33854 25.17305 91 ft 2 kts 319°
2026-05-01 13:42 35.33864 25.17297 91 ft 1 kts 322°
2026-05-01 13:42 35.33867 25.17293 91 ft 0 kts 319°